Location: Unspecified
(0.0000°N, 0.0000°E)
Time: 12:04:47
(UTC+00:00)

First-Move - Visible Passes

Search period start: 11 December 2019 00:00
Search period end: 21 December 2019 00:00
Orbit: 577 x 669 km, 97.6° (Epoch: 10 December)

Date Brightness Start Highest point End Pass type
(mag) Time Alt. Az. Time Alt. Az. Time Alt. Az.
11 Dec ? 05:16:53 10° NE 05:20:10 23° ESE 05:23:27 10° SSE visible
11 Dec ? 19:04:30 10° WSW 19:05:14 10° WSW 19:05:58 10° W visible
14 Dec ? 18:19:37 10° S 18:23:52 37° WSW 18:28:05 10° NW visible
15 Dec ? 04:55:45 10° E 04:56:52 11° ESE 04:58:00 10° ESE visible
15 Dec ? 18:38:33 10° SSW 18:42:01 21° WSW 18:45:29 10° NW visible
16 Dec ? 05:11:57 10° NE 05:15:00 20° ESE 05:18:05 10° SSE visible
16 Dec ? 18:58:26 10° SW 19:00:10 12° WSW 19:01:53 10° W visible
19 Dec ? 18:14:26 10° S 18:18:47 43° WSW 18:23:04 10° NNW visible
20 Dec ? 18:33:16 10° SSW 18:36:56 24° WSW 18:40:34 10° NW visible
